This is the latest recevied weather packets stored in our database for station/object DB0MOE-6. If no packets are shown the sender has not sent any weather packets the latest 10 day(s).
| Time | Temp. | Humidity | Pressure | Rain* | Wind** | Luminosity | Snow |
|---|---|---|---|---|---|---|---|
| 1787856672 | 26.67° C | 57% | 989.9 hPa | 0 mm | - | - | - |
| 1787856612 | 27.22° C | 58% | 990 hPa | 0 mm | - | - | - |
| 1787856552 | 27.22° C | 58% | 990 hPa | 0 mm | - | - | - |
| 1787856492 | 27.22° C | 56% | 989.9 hPa | 0 mm | - | - | - |
| 1787856432 | 26.67° C | 55% | 989.9 hPa | 0 mm | - | - | - |
| 1787856372 | 26.67° C | 56% | 989.7 hPa | 0 mm | - | - | - |
| 1787856312 | 26.67° C | 56% | 989.7 hPa | 0 mm | - | - | - |
| 1787856252 | 26.11° C | 56% | 989.8 hPa | 0 mm | - | - | - |
| 1787856192 | 26.11° C | 57% | 989.8 hPa | 0 mm | - | - | - |
| 1787856132 | 26.11° C | 60% | 989.8 hPa | 0 mm | - | - | - |
| 1787856072 | 26.11° C | 61% | 990 hPa | 0 mm | - | - | - |
| 1787856012 | 26.11° C | 61% | 989.9 hPa | 0 mm | - | - | - |
| 1787855952 | 26.11° C | 61% | 990 hPa | 0 mm | - | - | - |
| 1787855892 | 25.56° C | 61% | 990 hPa | 0 mm | - | - | - |
| 1787855832 | 25.56° C | 62% | 989.8 hPa | 0 mm | - | - | - |
| 1787855772 | 25.56° C | 62% | 990.1 hPa | 0 mm | - | - | - |
| 1787855712 | 26.11° C | 63% | 990.1 hPa | 0 mm | - | - | - |
| 1787855652 | 26.11° C | 63% | 989.9 hPa | 0 mm | - | - | - |
| 1787855592 | 26.11° C | 64% | 989.7 hPa | 0 mm | - | - | - |
| 1787855532 | 26.11° C | 63% | 989.8 hPa | 0 mm | - | - | - |
| 1787855472 | 26.11° C | 63% | 990.1 hPa | 0 mm | - | - | - |
| 1787855412 | 26.11° C | 62% | 990.1 hPa | 0 mm | - | - | - |
| 1787855352 | 26.11° C | 62% | 989.9 hPa | 0 mm | - | - | - |
| 1787855292 | 26.11° C | 61% | 990 hPa | 0 mm | - | - | - |
| 1787855232 | 26.11° C | 62% | 990 hPa | 0 mm | - | - | - |
* Rain latest hour (hover to see other rain measurements)
** Current wind speed in m/s (hover to see current wind gust speed)